[[{"header":{"parameterUnit":"m.s-1","parameterCategory":1,"la1":30.2991,"la2":30.254,"lo1":-89.0895,"lo2":-89.0444,"dy":0.0017,"dx":0.0017,"nx":28,"ny":28,"refTime":"2024-10-02T21:00:00:Z","depth":0,"parameterNumber":2,"parameterNumberName":"U-component_of_WINDS"},"data":[0,0,0,0,0,0,0,0,0,0,0,0,0,0,0,0,0,0,0,0,0,0,0,0,0,0,0,0,0,0,0,0,0,0,0,0,0,0,0,0,0,0,0,0,0,0,0,0,0,0,0,0,0,0,0,0,0,0,-3.2855,-3.2855,0,-3.2834,-3.2833,-3.2833,-3.2763,-3.2761,-3.276,-3.2758,-3.2738,-3.2739,-3.274,0,0,0,0,0,0,0,0,0,0,0,0,0,-3.2839,-3.2839,-3.2855,-3.2855,-3.2855,-3.2834,-3.2833,-3.2833,-3.2763,-3.2761,-3.2759,-3.2757,-3.2738,-3.2739,-3.274,0,0,0,0,0,0,0,0,0,0,0,0,0,-3.2834,-3.2839,-3.2855,-3.2817,-3.2813,-3.2834,-3.2833,-3.2833,-3.2763,-3.2761,-3.2759,-3.2756,-3.2737,-3.2739,-3.274,-3.2796,0,0,-3.2745,-3.2745,0,0,0,0,0,0,0,0,-3.2835,-3.2835,-3.2823,-3.282,-3.2816,-3.2798,-3.282,-3.2821,-3.2764,-3.2782,-3.2758,-3.2755,-3.276,-3.276,-3.2761,-3.2795,-3.2794,-3.2745,-3.2745,-3.2746,-3.2746,0,0,0,0,0,0,0,-3.2835,-3.2836,-3.2847,-3.2823,-3.2818,-3.2802,-3.2799,-3.282,-3.2785,-3.2781,-3.2776,-3.2774,-3.2758,-3.276,-3.276,-3.2794,-3.2745,-3.2746,-3.2747,-3.2747,-3.2877,-3.288,0,0,0,0,0,0,-3.2841,-3.2836,-3.2847,-3.2846,-3.282,-3.2804,-3.2801,-3.2806,-3.2784,-3.2779,-3.2776,-3.2771,-3.2758,-3.2758,-3.2759,-3.2826,-3.2746,-3.2747,-3.2748,-3.2875,-3.2878,-3.2881,0,0,0,0,0,0,-3.284,-3.2842,-3.2848,-3.284,-3.2839,-3.2807,-3.2814,-3.2807,-3.2809,-3.2781,-3.2775,-3.2784,-3.2757,-3.2757,-3.2788,-3.2824,-3.2748,-3.2749,-3.2872,-3.2876,-3.2879,-3.2958,0,0,0,0,0,0,-3.284,-3.2843,-3.2863,-3.2841,-3.284,-3.2877,-3.2816,-3.2809,-3.2811,-3.2804,-3.2787,-3.2782,-3.2755,-3.2787,-3.279,-3.2824,-3.275,-3.2868,-3.2874,-3.2878,-3.2952,-3.2964,-3.2975,0,0,0,0,0,-3.284,-3.2885,-3.2864,-3.2866,-3.2864,-3.2879,-3.2879,-3.2846,-3.2814,-3.2835,-3.2818,-3.2782,-3.2819,-3.279,-3.2793,-3.2829,-3.2866,-3.2872,-3.2878,-3.2947,-3.2962,-3.2974,0,0,0,0,0,0,-3.2912,-3.2882,-3.2858,-3.2897,-3.2891,-3.2867,-3.2892,-3.2862,-3.2866,-3.2859,-3.2819,-3.2816,-3.2854,-3.2844,-3.2812,-3.2884,-3.2837,-3.2844,-3.2889,-3.2903,-3.2914,-3.2916,-3.2752,0,0,0,0,0,-3.2932,-3.2946,-3.2919,-3.2957,-3.2955,-3.2924,-3.2929,-3.2905,-3.2898,-3.2895,-3.2879,-3.2875,-3.2885,-3.2893,-3.2901,-3.295,-3.2947,-3.2977,-3.2988,-3.2997,-3.3004,-3.3033,-3.3047,-3.29,-3.29,-3.29,0,0,-3.2975,-3.296,-3.2971,-3.2971,-3.2963,-3.298,-3.2923,-3.2942,-3.2955,-3.2898,-3.2927,-3.2916,-3.2908,-3.295,-3.2967,-3.2943,-3.3044,-3.3005,-3.3012,-3.3014,-3.304,-3.3054,-3.3067,-3.2904,-3.2903,-3.2903,0,0,-3.3061,-3.305,-3.3081,-3.3076,-3.3066,-3.3045,-3.3053,-3.3034,-3.3025,-3.3053,-3.3012,-3.3027,-3.3045,-3.3042,-3.3043,-3.3132,-3.31,-3.3135,-3.3194,-3.3223,-3.3234,-3.3244,-3.3279,-3.3291,-3.3142,-3.3142,-3.3142,0,-3.3115,-3.3138,-3.3101,-3.3124,-3.3127,-3.3077,-3.311,-3.3106,-3.3099,-3.3103,-3.3075,-3.31,-3.309,-3.3132,-3.3154,-3.3155,-3.3165,-3.3138,-3.3235,-3.3245,-3.3254,-3.3286,-3.3299,-3.3147,-3.3146,-3.3146,-3.3145,0,-3.3206,-3.3223,-3.325,-3.3245,-3.325,-3.3278,-3.3248,-3.3258,-3.3234,-3.3217,-3.3248,-3.3236,-3.3242,-3.325,-3.3226,-3.3289,-3.3275,-3.3242,-3.3194,-3.3273,-3.3303,-3.3315,-3.3153,-3.3151,-3.315,-3.3149,0,0,-3.3336,-3.3313,-3.3324,-3.3322,-3.3309,-3.3322,-3.3348,-3.3354,-3.3365,-3.3362,-3.3386,-3.3404,-3.3374,-3.3375,-3.3351,-3.3376,-3.345,-3.334,-3.3339,-3.3363,-3.3523,-3.3549,-3.3564,-3.3429,-3.3431,-3.3433,-3.3525,0,-3.342,-3.3464,-3.3433,-3.3483,-3.35,-3.3453,-3.3477,-3.3472,-3.3458,-3.3471,-3.3455,-3.347,-3.3428,-3.3429,-3.3452,-3.3437,-3.3482,-3.3429,-3.3453,-3.3454,-3.3458,-3.3579,-3.3606,-3.3693,-3.3536,-3.3538,-3.3539,0,-3.3523,-3.3527,-3.3578,-3.3564,-3.357,-3.3591,-3.3596,-3.3608,-3.3603,-3.3591,-3.3594,-3.3564,-3.3592,-3.3544,-3.3583,-3.3548,-3.3555,-3.355,-3.3553,-3.3555,-3.3502,-3.3587,-3.372,-3.3734,-3.3556,-3.3555,-3.3554,0,-3.3617,-3.3634,-3.3667,-3.3667,-3.3651,-3.3668,-3.3662,-3.3654,-3.3661,-3.3665,-3.367,-3.3677,-3.3682,-3.369,-3.3664,-3.3631,-3.3707,-3.3656,-3.37,-3.3701,-3.3719,-3.3719,-3.3858,-3.3721,-3.3721,-3.3721,-3.3721,0,-3.3715,-3.3749,-3.371,-3.3731,-3.3768,-3.3734,-3.3772,-3.3761,-3.3756,-3.3775,-3.3735,-3.3755,-3.3718,-3.3735,-3.3715,-3.3752,-3.3754,-3.3747,-3.3741,-3.3751,-3.3753,-3.3757,-3.3751,-3.3724,-3.3723,-3.3723,-3.3722,0,-3.3825,-3.38,-3.3834,-3.3817,-3.3813,-3.3842,-3.3827,-3.3847,-3.3831,-3.3856,-3.386,-3.3835,-3.3853,-3.3828,-3.3842,-3.3829,-3.3881,-3.3865,-3.3883,-3.3879,-3.3925,-3.3923,-3.4073,-3.4093,-3.3942,-3.3943,-3.3945,0,-3.389,-3.3916,-3.3901,-3.3911,-3.3908,-3.3924,-3.3932,-3.3899,-3.3908,-3.3906,-3.3927,-3.3941,-3.3951,-3.3982,-3.3966,-3.3978,-3.3964,-3.4016,-3.3965,-3.3976,-3.3968,-3.3968,-3.3972,-3.4027,-3.4029,-3.403,-3.4031,0,-3.4009,-3.3996,-3.4007,-3.4016,-3.4025,-3.403,-3.4032,-3.4043,-3.4009,-3.4022,-3.404,-3.4047,-3.4063,-3.4079,-3.4088,-3.4083,-3.4053,-3.4047,-3.4059,-3.407,-3.4081,-3.4079,-3.3914,-3.4044,-3.4043,-3.4042,-3.4041,-3.4041,-3.4101,-3.4122,-3.4116,-3.4131,-3.4129,-3.4133,-3.4152,-3.4138,-3.4152,-3.4163,-3.4143,-3.4166,-3.4163,-3.4171,-3.4171,-3.419,-3.4168,-3.4183,-3.4187,-3.4192,-3.4201,-3.4076,-3.4191,-3.4191,-3.419,-3.419,-3.419,0,-3.422,-3.4214,-3.4228,-3.4233,-3.4246,-3.4215,-3.4217,-3.423,-3.4251,-3.425,-3.4261,-3.4283,-3.4299,-3.4285,-3.4299,-3.4317,-3.4304,-3.4322,-3.4322,-3.4322,-3.4219,-3.4209,-3.4333,-3.4333,-3.4333,-3.4333,-3.4333,-3.4333,-3.4284,-3.4319,-3.4306,-3.4342,-3.4336,-3.4359,-3.4363,-3.4367,-3.4367,-3.4393,-3.4406,-3.4397,-3.4392,-3.4405,-3.442,-3.4415,-3.4423,-3.4447,-3.4438,-3.4343,-3.4329,-3.4315,-3.4306,-3.4448,-3.4449,-3.454,-3.4541,-3.4542]},{"header":{"parameterUnit":"m.s-1","parameterCategory":1,"la1":30.2991,"la2":30.254,"lo1":-89.0895,"lo2":-89.0444,"dy":0.0017,"dx":0.0017,"nx":28,"ny":28,"refTime":"2024-10-02T21:00:00:Z","depth":0,"parameterNumber":3,"parameterNumberName":"V-component_of_WINDS"},"data":[0,0,0,0,0,0,0,0,0,0,0,0,0,0,0,0,0,0,0,0,0,0,0,0,0,0,0,0,0,0,0,0,0,0,0,0,0,0,0,0,0,0,0,0,0,0,0,0,0,0,0,0,0,0,0,0,0,0,-1.5102,-1.5101,0,-1.5058,-1.5057,-1.5057,-1.4984,-1.4982,-1.4981,-1.498,-1.4937,-1.4937,-1.4937,0,0,0,0,0,0,0,0,0,0,0,0,0,-1.5123,-1.5123,-1.5102,-1.5101,-1.5101,-1.5058,-1.5057,-1.5057,-1.4984,-1.4982,-1.4981,-1.4979,-1.4937,-1.4937,-1.4937,0,0,0,0,0,0,0,0,0,0,0,0,0,-1.51,-1.5123,-1.5102,-1.5059,-1.5055,-1.5058,-1.5057,-1.5057,-1.4984,-1.4982,-1.498,-1.4978,-1.4937,-1.4937,-1.4937,-1.4979,0,0,-1.4937,-1.4937,0,0,0,0,0,0,0,0,-1.5101,-1.5099,-1.5066,-1.5062,-1.5057,-1.5024,-1.5049,-1.5031,-1.4985,-1.5011,-1.498,-1.4977,-1.4967,-1.4965,-1.4961,-1.4977,-1.4975,-1.4937,-1.4938,-1.4938,-1.4938,0,0,0,0,0,0,0,-1.5103,-1.5101,-1.5084,-1.5065,-1.506,-1.5042,-1.5037,-1.5045,-1.5001,-1.5009,-1.5003,-1.4999,-1.4965,-1.4961,-1.496,-1.4974,-1.4937,-1.4938,-1.4938,-1.4938,-1.5021,-1.5023,0,0,0,0,0,0,-1.5111,-1.5103,-1.5086,-1.5083,-1.5075,-1.5044,-1.5037,-1.5037,-1.5001,-1.4994,-1.5001,-1.4996,-1.4962,-1.496,-1.4958,-1.5004,-1.4938,-1.4938,-1.4938,-1.5019,-1.5021,-1.5024,0,0,0,0,0,0,-1.5111,-1.511,-1.5087,-1.5091,-1.5087,-1.5045,-1.5045,-1.5037,-1.5034,-1.4995,-1.4987,-1.5005,-1.496,-1.4958,-1.4974,-1.5002,-1.4938,-1.4938,-1.5016,-1.502,-1.5023,-1.5098,0,0,0,0,0,0,-1.5112,-1.5111,-1.5126,-1.5092,-1.5087,-1.5104,-1.5047,-1.5038,-1.5034,-1.5027,-1.4997,-1.499,-1.4959,-1.4974,-1.4974,-1.5001,-1.4938,-1.5014,-1.5018,-1.5022,-1.5092,-1.5103,-1.5112,0,0,0,0,0,-1.5113,-1.5149,-1.5127,-1.5126,-1.5105,-1.5106,-1.5103,-1.5065,-1.5036,-1.5052,-1.5027,-1.4991,-1.4999,-1.4976,-1.4976,-1.5003,-1.5012,-1.5017,-1.5021,-1.5088,-1.5101,-1.5112,0,0,0,0,0,0,-1.5189,-1.5144,-1.5119,-1.5145,-1.513,-1.5094,-1.5112,-1.508,-1.5073,-1.5067,-1.5021,-1.5015,-1.5037,-1.5021,-1.4997,-1.5041,-1.5,-1.5004,-1.5051,-1.5062,-1.5072,-1.5075,-1.4938,0,0,0,0,0,-1.5208,-1.5212,-1.5173,-1.52,-1.5193,-1.5154,-1.5153,-1.5125,-1.5107,-1.5101,-1.5077,-1.5062,-1.506,-1.506,-1.5057,-1.5089,-1.5082,-1.5108,-1.5118,-1.5126,-1.5131,-1.5146,-1.5157,-1.5039,-1.5039,-1.5039,0,0,-1.5249,-1.5225,-1.523,-1.5214,-1.5199,-1.5204,-1.5149,-1.5157,-1.516,-1.5102,-1.5115,-1.5098,-1.5077,-1.5102,-1.5111,-1.5089,-1.5161,-1.5132,-1.5139,-1.5139,-1.5152,-1.5163,-1.5173,-1.5042,-1.5042,-1.5041,0,0,-1.5325,-1.5308,-1.5327,-1.5313,-1.529,-1.5264,-1.5269,-1.5237,-1.5223,-1.5235,-1.5191,-1.5195,-1.5194,-1.5181,-1.5174,-1.5245,-1.5212,-1.5245,-1.5296,-1.5311,-1.5321,-1.5329,-1.5354,-1.5363,-1.525,-1.525,-1.525,0,-1.5379,-1.5384,-1.5342,-1.5352,-1.5346,-1.5293,-1.5313,-1.5301,-1.5279,-1.5276,-1.5252,-1.5249,-1.5231,-1.5252,-1.5269,-1.5265,-1.5269,-1.5248,-1.5323,-1.533,-1.5337,-1.536,-1.537,-1.5254,-1.5254,-1.5253,-1.5253,0,-1.5451,-1.5455,-1.5474,-1.5453,-1.5449,-1.5465,-1.5425,-1.5426,-1.5398,-1.5375,-1.5388,-1.5365,-1.5356,-1.5358,-1.5332,-1.5375,-1.5362,-1.5331,-1.5288,-1.5353,-1.5374,-1.5383,-1.526,-1.5259,-1.5257,-1.5256,0,0,-1.5574,-1.5529,-1.5537,-1.5526,-1.5497,-1.5499,-1.5512,-1.5502,-1.5504,-1.549,-1.55,-1.5499,-1.547,-1.5463,-1.5434,-1.5448,-1.5504,-1.5414,-1.5413,-1.5432,-1.555,-1.5574,-1.5585,-1.5482,-1.5483,-1.5485,-1.5552,0,-1.5644,-1.5663,-1.5625,-1.5653,-1.5656,-1.5605,-1.5616,-1.5599,-1.5577,-1.5577,-1.5552,-1.5553,-1.5514,-1.5509,-1.552,-1.5495,-1.5527,-1.549,-1.549,-1.5491,-1.5497,-1.5596,-1.5621,-1.5685,-1.556,-1.5561,-1.5562,0,-1.5729,-1.5719,-1.5747,-1.5715,-1.5715,-1.5726,-1.5713,-1.5714,-1.5693,-1.5676,-1.5667,-1.5633,-1.5643,-1.5602,-1.5615,-1.559,-1.5588,-1.5575,-1.5577,-1.5576,-1.5531,-1.5597,-1.5705,-1.5715,-1.5574,-1.5573,-1.5573,0,-1.5816,-1.5809,-1.5825,-1.5818,-1.5781,-1.5789,-1.5775,-1.5752,-1.5749,-1.5738,-1.5735,-1.5726,-1.5721,-1.5715,-1.5679,-1.5652,-1.5696,-1.5652,-1.5682,-1.5683,-1.5694,-1.5694,-1.5803,-1.5693,-1.5693,-1.5692,-1.5692,0,-1.5899,-1.5918,-1.5864,-1.5873,-1.5893,-1.5849,-1.587,-1.585,-1.5831,-1.5835,-1.5791,-1.5796,-1.5748,-1.5749,-1.5721,-1.5736,-1.5734,-1.572,-1.5713,-1.5724,-1.5726,-1.5723,-1.5717,-1.5695,-1.5694,-1.5694,-1.5693,0,-1.6,-1.5964,-1.5978,-1.5941,-1.5933,-1.5949,-1.5918,-1.5925,-1.59,-1.5906,-1.5906,-1.5866,-1.5864,-1.5827,-1.5818,-1.5799,-1.5825,-1.5809,-1.5832,-1.5827,-1.5859,-1.5856,-1.5969,-1.5982,-1.5864,-1.5865,-1.5866,0,-1.6055,-1.6069,-1.6033,-1.6033,-1.602,-1.6021,-1.6016,-1.5973,-1.5971,-1.5948,-1.5959,-1.5953,-1.5946,-1.5945,-1.5915,-1.5907,-1.5891,-1.5931,-1.5889,-1.5901,-1.5891,-1.5891,-1.5892,-1.594,-1.5942,-1.5943,-1.5944,0,-1.6157,-1.6138,-1.6134,-1.6123,-1.6119,-1.6108,-1.6095,-1.6097,-1.605,-1.605,-1.6047,-1.6041,-1.6031,-1.6025,-1.6012,-1.5997,-1.5963,-1.5957,-1.5963,-1.5976,-1.5988,-1.5982,-1.5856,-1.5955,-1.5954,-1.5953,-1.5952,-1.5952,-1.6236,-1.6246,-1.6222,-1.6218,-1.6204,-1.6192,-1.6197,-1.6172,-1.6168,-1.6156,-1.6131,-1.6132,-1.611,-1.6089,-1.6076,-1.6076,-1.6056,-1.6065,-1.6068,-1.6071,-1.6077,-1.5988,-1.6074,-1.6073,-1.6073,-1.6073,-1.6072,0,-1.6336,-1.6318,-1.6315,-1.6297,-1.6294,-1.6261,-1.6245,-1.6244,-1.6245,-1.6228,-1.6222,-1.6218,-1.6212,-1.6182,-1.6173,-1.6179,-1.6163,-1.6178,-1.6177,-1.6174,-1.6096,-1.6091,-1.6191,-1.6191,-1.6191,-1.6191,-1.6191,-1.6191,-1.6387,-1.6401,-1.6379,-1.6385,-1.6367,-1.6367,-1.636,-1.6349,-1.6335,-1.6333,-1.6328,-1.6308,-1.6285,-1.6273,-1.6267,-1.6258,-1.6257,-1.6277,-1.6263,-1.6191,-1.618,-1.6169,-1.6164,-1.6277,-1.6277,-1.6341,-1.6341,-1.6342]}]]